Regional Weather Roundup
Issued by NWS

Home | Current Version | Previous Version | Graphics & Text | Print | Product List | Glossary On
Versions: 1 2 3 4 5 6 7 8 9 10 11 12 13 14 15 16 17 18 19 20 21 22 23 24 25 26 27 28 29 30 31 32 33 34 35 36 37 38 39 40 41 42 43 44 45 46 47 48 49 50
000
ASUS43 KIND 202259
RWRIN

WEATHER ROUNDUP FOR INDIANA
NATIONAL WEATHER SERVICE INDIANAPOLIS IN
600 PM EST MON NOV 20 2017

NOTE: "FAIR" INDICATES FEW OR NO CLOUDS BELOW 12,000 FEET WITH NO
SIGNIFICANT WEATHER AND/OR OBSTRUCTIONS TO VISIBILITY.

* - STATION DOES NOT REPORT WEATHER SUCH AS PRECIPITATION OR FOG.

+ - STATION NOT QUALITY CONTROLLED BY THE NATIONAL WEATHER SERVICE.
    USE DATA WITH CAUTION...ESPECIALLY DEWPOINT AND RELATIVE
    HUMIDITY OBSERVATIONS.

INZ001>003-010>013-019-020-210000-
NORTHWEST INDIANA

CITY           SKY/WX    TMP DP  RH WIND       PRES   REMARKS
GARY /AIRPORT/ PTCLDY    50  32  50 SW14G25   29.80F
KNOX *+        CLEAR     45  32  61 S17       29.85S
LA PORTE +     CLEAR     46  32  58 SW16G25   29.84S
MICHIGAN CITY+ CLEAR     46  32  57 S15G26    29.81F
MONTICELLO +   CLEAR     45  28  51 S9G16     29.89F
RENSSELAER +   CLEAR     45  27  49 S16       29.87S

$$

LMZ046-743>745-210000-
SOUTHERN LAKE MICHIGAN

STATION/POSITION TIME  TEMP    WIND        PRES    WAVE
                       AIR SEA DIR/SP/G            HT
                 (UTC) (F)     (DEG/KT/KT) (MB)    (FT)
BURNS HARBOR     2240   49     190/ 20/ 28 1009.5F
MICHIGAN CITY    2230   50     190/ 22/ 24   N/A

$$

INZ004-005-014>016-021>024-210000-
NORTH CENTRAL INDIANA

CITY           SKY/WX    TMP DP  RH WIND       PRES   REMARKS
ELKHART        CLEAR     46  30  53 SW12G17   29.84F
GOSHEN         CLEAR     45  27  49 S18       29.85F
PERU/GRISSOM   CLEAR     43  29  56 S13       29.91F
SOUTH BEND     CLEAR     47  31  53 S17G24    29.84F
WARSAW +       CLEAR     45  28  53 S9G17     29.88S

$$

INZ006>009-017-018-025>027-210000-
NORTHEAST INDIANA

CITY           SKY/WX    TMP DP  RH WIND       PRES   REMARKS
AUBURN +       CLEAR     43  28  56 S9G18     29.91S
FORT WAYNE     PTCLDY    43  30  60 S18       29.93S
KENDALLVILLE + CLEAR     44  30  58 S15G22    29.88S

$$

INZ028-029-035-036-043>045-051>053-210000-
WEST CENTRAL INDIANA

CITY           SKY/WX    TMP DP  RH WIND       PRES   REMARKS
CRAWFORDSVL +  CLEAR     41  29  62 S12         N/A
GREENCASTLE +  CLEAR     45  25  45 S10       29.98S
LAFAYETTE      CLOUDY    45  30  55 S9        29.91F
TERRE HAUTE    CLEAR     46  27  47 S13       29.98S

$$

INZ030>032-037>040-046>048-054>057-064-065-210000-
CENTRAL INDIANA

CITY           SKY/WX    TMP DP  RH WIND       PRES   REMARKS
COLUMBUS       PTCLDY    41  21  45 S9        30.04F
FRANKFORT +    CLOUDY    44  31  60 SW10      29.94F
INDIANAPOLIS   CLOUDY    46  23  40 S16       29.99S
-EAGLE CREEK   CLOUDY    47  23  38 S9        29.97S
KOKOMO +       CLEAR     42  28  57 S10       29.94F
MT COMFORT *+  CLOUDY    43  30  61 S9        29.99S
SHELBYVILLE    CLOUDY    45  25  45 S13       30.01S

$$

INZ033-034-041-042-049-050-058-059-210000-
EAST CENTRAL INDIANA

CITY           SKY/WX    TMP DP  RH WIND       PRES   REMARKS
MUNCIE         CLOUDY    44  27  51 S16       29.97S
RICHMOND +     CLOUDY    36  30  80 S13       30.02F WCI  27

$$

INZ060-061-067>069-081>083-085>088-210000-
SOUTHWEST INDIANA

CITY           SKY/WX    TMP DP  RH WIND       PRES   REMARKS
EVANSVILLE     CLEAR     48  24  39 S5        30.04F
HUNTINGBURG +  CLEAR     45  25  45 S5        30.06S

$$

INZ062-063-066-070>080-084-089>092-210000-
SOUTH CENTRAL AND SOUTHEAST INDIANA

CITY           SKY/WX    TMP DP  RH WIND       PRES   REMARKS
BLOOMINGTON    CLEAR     44  22  41 S6        30.00F
MADISON *+     CLOUDY    43  23  45 S6        30.08F
SEYMOUR +      CLOUDY    45  25  45 S6        30.06S

$$





USA.gov is the U.S. government's official web portal to all federal, state and local government web resources and services.